Theta_e
325 324 326 326 327 327 341 342 345 345 343 344 344 340 349 349 344 342 340 334 323 323 324 324 324 324 323 324 324 324 324 323
324 324 325 324 324 326 342 343 343 343 344 341 341 347 347 347 345 340 340 334 325 323 324 324 324 324 324 324 324 324 323 323
322 322 322 323 321 320 334 344 345 344 345 346 343 349 347 347 349 342 339 334 326 324 324 324 324 324 324 324 324 324 323 323
320 321 322 321 319 318 327 341 346 344 344 341 342 345 347 349 348 342 337 335 330 326 324 324 324 324 324 324 324 324 324 323
320 322 322 320 318 320 325 336 345 343 344 344 341 342 351 354 354 340 336 335 334 333 327 325 325 324 324 325 325 324 324 324
321 322 321 319 319 340 334 330 342 343 343 342 339 343 349 352 353 342 335 335 336 335 334 331 327 325 326 328 330 330 329 327
321 320 321 319 321 320 332 344 341 343 349 349 337 347 350 348 350 339 335 334 336 336 337 336 333 329 327 329 332 333 334 333
318 318 321 320 319 320 330 343 345 348 345 349 339 350 351 346 341 336 334 333 333 335 336 337 337 335 332 331 332 333 335 335
320 319 318 320 321 318 333 345 345 345 351 347 340 347 352 347 343 338 334 332 330 329 331 333 334 335 335 335 334 334 334 335
319 317 318 320 319 321 333 344 342 335 347 346 344 347 350 348 346 341 335 332 329 325 325 326 329 331 332 333 335 334 334 334
318 318 317 317 319 320 321 324 322 323 336 344 346 347 343 345 343 341 336 333 330 327 324 323 325 327 330 331 333 334 333 334
319 321 318 318 318 317 321 321 321 323 341 344 345 345 340 338 344 337 337 337 333 331 329 325 324 325 327 329 330 331 332 332
321 321 321 318 320 321 321 321 321 322 325 344 346 342 341 337 339 345 345 343 344 342 337 330 328 328 328 329 330 331 333 333
321 320 319 320 323 323 320 319 321 326 322 323 340 344 342 342 339 340 338 342 345 344 345 343 334 331 332 333 333 333 336 338
321 319 321 321 324 323 320 320 320 321 325 324 324 330 342 346 344 342 341 338 341 344 343 345 341 332 332 334 335 334 336 339
323 321 322 322 323 322 320 318 319 319 319 319 320 322 329 341 346 343 343 342 340 341 344 344 345 336 334 334 338 341 339 340
323 322 323 323 322 322 320 321 321 321 321 322 319 319 320 323 342 344 339 335 336 339 341 340 345 344 340 336 337 341 341 340
323 321 323 322 323 321 322 323 323 323 323 322 323 323 323 321 321 323 330 333 328 328 330 334 337 338 341 339 338 340 342 340
323 320 320 322 324 322 323 323 322 322 322 322 322 323 324 324 324 321 320 322 324 324 327 331 334 338 336 341 339 337 332 335
321 322 325 321 324 323 324 323 323 322 322 321 321 322 322 324 325 325 324 322 321 322 324 330 331 338 332 334 335 332 330 329
Wind_Speed
2 1 3 2 3 4 3 5 8 9 4 2 1 4 11 22 27 30 29 27 26 25 23 21 19 18 17 17 15 15 13 13
3 3 3 3 3 5 2 5 7 5 3 2 5 13 15 20 20 26 28 26 25 24 23 21 20 19 18 16 15 14 13 12
2 3 3 6 6 5 7 3 7 5 1 1 7 15 15 19 20 28 28 27 25 23 22 21 19 18 17 16 14 13 13 13
5 3 3 6 6 7 11 7 5 4 2 2 9 13 14 22 20 27 27 26 25 23 22 21 20 18 17 16 15 13 12 11
4 3 2 4 10 4 7 11 6 1 2 1 13 14 15 20 22 27 26 26 26 25 23 21 20 19 18 17 15 14 12 11
3 4 2 5 7 5 4 8 4 6 3 0 13 17 17 18 23 27 27 28 28 26 24 22 21 20 18 17 15 13 12 10
4 4 1 5 9 3 3 2 7 6 3 4 14 22 22 23 27 29 28 28 27 26 24 24 23 21 20 18 15 15 13 11
2 2 6 13 6 12 2 4 6 4 12 6 21 23 25 25 27 26 27 28 28 29 28 26 24 23 22 21 20 19 16 14
3 8 8 10 9 2 1 4 7 8 9 8 23 24 25 24 25 27 26 27 27 27 27 26 25 24 24 23 22 21 18 17
3 4 3 6 9 5 5 2 5 6 9 13 24 24 23 23 23 26 24 24 24 24 24 23 24 24 25 24 24 23 20 19
7 10 8 6 10 4 7 7 4 5 6 16 23 21 17 20 20 23 24 24 24 23 22 22 23 25 25 25 23 22 19 19
6 7 4 4 2 6 10 10 7 6 10 17 25 22 18 20 23 24 23 24 24 23 23 23 24 24 23 23 22 20 19 18
7 4 3 8 4 8 8 10 13 11 11 16 24 26 20 19 23 23 23 25 23 23 22 23 23 21 22 22 22 20 18 18
2 3 1 5 7 8 7 8 14 14 13 14 20 28 28 23 22 27 26 26 25 23 24 25 27 26 24 23 22 23 20 19
3 1 1 4 5 4 4 9 16 17 15 14 15 18 25 28 28 26 27 27 27 27 29 26 28 28 27 25 23 25 21 20
4 3 2 3 10 5 9 5 6 6 6 9 13 13 17 25 28 29 30 31 30 30 29 30 28 29 29 29 23 21 24 21
8 6 4 5 5 8 12 16 15 17 15 12 7 9 14 21 30 32 33 34 34 33 33 31 31 31 31 35 34 25 23 22
8 5 8 4 2 9 13 15 16 17 18 15 16 15 9 8 22 31 34 36 36 35 33 34 33 31 35 37 34 30 26 25
4 4 2 5 4 7 10 15 17 20 17 18 19 20 22 18 9 14 28 34 37 39 37 37 37 37 39 37 33 28 28 26
3 6 6 3 5 5 8 10 14 16 19 20 23 23 26 28 24 16 9 22 34 37 41 41 42 43 42 40 38 36 32 27
Wind_Direction
179 171 192 251 228 343 300 199 190 177 208 219 213 162 141 158 167 174 178 176 169 170 171 169 171 172 170 167 163 159 156 151
227 153 196 262 322 270 222 202 196 173 190 242 192 153 159 159 167 176 180 176 172 173 175 174 173 173 172 170 168 163 158 157
147 192 266 258 284 269 237 200 170 194 146 225 183 164 162 174 174 179 182 178 174 175 177 177 176 177 177 173 169 167 164 163
164 197 259 285 287 281 232 210 158 208 247 145 174 178 174 178 172 179 184 179 178 176 179 179 181 181 180 177 175 174 171 170
153 170 258 343 337 218 246 214 198 212 255 132 165 183 173 170 179 180 183 183 182 183 181 184 186 187 187 183 182 180 181 179
200 177 87 355 355 325 211 226 223 200 271 128 185 174 173 171 179 181 185 187 188 187 185 186 189 193 193 192 191 191 191 190
187 199 357 347 352 10 303 215 184 196 252 294 182 175 175 172 176 182 187 191 191 192 195 193 194 194 199 201 201 203 201 201
202 244 313 323 326 331 293 214 206 218 247 277 177 178 181 177 182 187 190 193 195 198 199 200 198 200 202 205 209 210 210 212
227 250 284 310 310 342 211 221 236 225 225 224 181 186 185 187 191 194 195 199 200 202 202 204 204 206 209 210 215 216 216 222
279 256 281 286 301 313 197 264 206 246 246 210 189 186 192 196 197 201 201 204 205 205 207 209 211 212 215 216 218 219 220 222
260 273 260 260 258 291 266 238 223 268 232 210 196 198 204 202 205 204 207 209 209 208 207 210 214 216 217 218 220 223 226 229
273 265 223 212 264 188 244 238 251 237 206 222 211 215 219 213 207 207 210 214 215 215 214 213 214 218 220 223 223 223 227 232
228 232 240 177 172 218 223 229 235 243 244 223 217 224 230 233 222 220 223 221 222 225 224 224 224 224 223 222 225 223 228 234
188 195 62 215 239 238 241 231 234 227 224 235 234 234 238 241 239 234 237 237 229 231 233 229 228 225 224 224 227 224 227 235
292 44 106 223 237 240 281 278 256 238 238 235 240 238 236 240 242 244 241 243 241 238 239 237 233 229 226 223 230 231 231 240
267 156 306 211 258 312 352 1 329 1 307 304 285 287 269 251 242 242 241 243 246 245 243 241 242 234 232 229 231 237 236 245
265 231 267 206 259 35 53 66 63 59 45 27 353 309 283 260 247 245 242 240 246 250 247 243 233 234 235 234 232 239 239 247
278 227 213 178 172 71 57 58 65 68 59 40 32 35 24 284 249 249 249 247 247 246 244 238 230 226 233 231 236 239 246 240
261 123 159 151 188 142 78 65 58 50 49 45 37 26 25 28 12 258 248 248 246 248 243 234 228 226 231 232 233 233 241 241
188 188 205 231 201 133 118 83 59 45 37 29 26 27 26 24 22 9 309 252 244 239 242 239 231 229 230 231 228 225 233 235